Location: Unspecified
(50.7693°N, 0.0000°E)
Time: 13:50:02
(UTC+00:00)

Transit 4A - Pass Details

Date: 29 June 2019
Orbit: 862 x 982 km, 66.8° (Epoch: 17 July)

Event Time Altitude Azimuth Distance (km) Brightness Sun altitude
Rises 15:31:26 0° 320° (NW) 3,692 11.3 41.6°
Reaches altitude 10° 15:34:05 10° 316° (NW) 2,734 10.8 41.1°
Maximum altitude 15:40:15 52° 243° (WSW) 1,184 10.5 40.2°
Drops below altitude 10° 15:46:14 10° 168° (SSE) 2,657 10.4 39.3°
Sets 15:48:47 0° 164° (SSE) 3,579 10.9 38.9°
